Airport Information

KLMT - Klamath Falls Airport

KLMT 191753Z 35010KT 10SM CLR 23/M03 A3015 RMK AO2 SLP169 T02281028 10228 20056 58004


  • General Information

  • Coordinates: N 42°9'21"/ W 121°43'58"
  • Location: N/A
  • Surveyed Elevation: 4095 MSL

Operations

Flow Name Active Runways Conditions
South Flow Landing: 14
Departing: 14
Wind Direction: 050-229°
Wind Speed: >10

Green background denotes normal operations.


Common Frequencies

Callsign Frequency Position Name
LMT_GND 121.900 Kingsley Ground

More at the Document Center


Charts